Location: Bats
(43.6587°N, 0.4584°W)
Time: 04:30:53
(UTC+00:00)

Cosmos 2074 Rocket - Visible Passes

Search period start: 21 April 2026 00:00
Search period end: 01 May 2026 00:00
Orbit: 967 x 984 km, 82.9° (Epoch: 20 April)

Date Brightness Start Highest point End Pass type
(mag) Time Alt. Az. Time Alt. Az. Time Alt. Az.
21 Apr 6.9 20:02:24 10° WSW 20:06:43 19° WNW 20:11:04 10° NNW visible
22 Apr 7.5 20:31:40 10° WNW 20:32:51 10° WNW 20:34:00 10° NW visible
23 Apr 7.0 03:50:30 10° NNE 03:54:43 18° ENE 03:58:54 10° ESE visible
24 Apr 6.2 04:15:06 10° N 04:20:39 31° ENE 04:26:08 10° SE visible
24 Apr 6.9 19:32:55 10° WSW 19:37:39 22° WNW 19:42:25 10° NNW visible
25 Apr 7.5 20:01:11 10° W 20:03:43 12° WNW 20:06:15 10° NW visible
26 Apr 7.0 03:21:56 10° NNE 03:25:38 16° ENE 03:29:18 10° E visible
27 Apr 6.3 03:46:20 10° NNE 03:51:36 27° ENE 03:56:51 10° SE visible
28 Apr 5.3 04:11:19 10° N 04:17:23 47° ENE 04:23:23 10° SSE visible
28 Apr 7.4 19:31:17 10° W 19:34:36 15° WNW 19:37:56 10° NNW visible
29 Apr 7.0 02:53:31 10° NNE 02:56:32 14° ENE 02:59:31 10° E visible
30 Apr 6.4 03:17:35 10° NNE 03:22:34 24° ENE 03:27:29 10° ESE visible
